Regional Weather Roundup
Issued by NWS Charleston, SC

Home | Current Version | Previous Version | Text Only | Print | Product List | Glossary On
Versions: 1 2 3 4 5 6 7 8 9 10 11 12 13 14 15 16 17 18 19 20 21 22 23 24 25 26 27 28 29 30 31 32 33 34 35 36 37 38 39 40 41 42 43 44 45 46 47 48 49 50
000
ASUS42 KCHS 212210
RWRCHS

REGIONAL WEATHER ROUNDUP
NATIONAL WEATHER SERVICE CHARLESTON SC
600 PM EDT TUE OCT 21 2014

NOTE: "FAIR" INDICATES FEW OR NO CLOUDS BELOW 12,000 FEET WITH NO
SIGNIFICANT WEATHER AND/OR OBSTRUCTIONS TO VISIBILITY.

NOT ALL STATIONS ARE QUALITY CONTROLLED BY THE NATIONAL
WEATHER SERVICE. USE DATA WITH CAUTION...ESPECIALLY
DEWPOINT OBSERVATIONS.

SCZ027-030-031-034>040-042>050-212300-
...SOUTH CAROLINA...

CITY           SKY/WX    TMP DP  RH WIND       PRES   REMARKS
N CHARLESTON   PTCLDY    77  52  41 W6        29.87S
WATERFRONT PRK   N/A     77 N/A N/A SW6         N/A
FORT JOHNSON   NOT AVBL
JOHNS ISLAND   CLEAR     75  63  64 SW7       29.88S
PINOPOLIS      NOT AVBL
MONCKS CORNER  FAIR      73  59  60 CALM      29.87R
SUMMERVILLE    FAIR      73  57  56 S3        29.88S
BEAUFORT MCAS  CLEAR     76  55  48 SW7       29.88S
BEAUFORT ARPT  FAIR      75  59  57 W6        29.88S
HILTON HEAD IS CLEAR     73  61  64 W5        29.90
GEORGETOWN     NOT AVBL
WALTERBORO     CLEAR     77  45  31 SW3       29.88S
ORANGEBURG     CLEAR     77  43  29 W7        29.87R
BARNWELL       FAIR      77  46  33 W3        29.88S
AIKEN          FAIR      73  54  49 W12       29.91S
MANNING        FAIR      77  52  41 CALM      29.86S
KINGSTREE      NOT AVBL
COLUMBIA       PTCLDY    76  48  37 W8G22     29.86R
SUMTER         CLEAR     75  49  40 W5        29.85R
FLORENCE       CLEAR     75  47  36 W7        29.85R
MYRTLE BEACH   PTCLDY    75  59  57 SW12      29.85S
N MYRTLE BEACH MOCLDY    72  59  63 S15       29.85R

$$

GAZ063-065-086>088-099>101-113>116-118-119-134-136>141-150-212300-
...GEORGIA...

CITY           SKY/WX    TMP DP  RH WIND       PRES   REMARKS
SAVANNAH ARPT  CLEAR     78  53  41 W6        29.89S
HUNTER AAF     CLEAR     76  56  49 W6        29.87S
FORT STEWART   CLEAR     78  52  40 W5        29.88S
STATESBORO     NOT AVBL
SYLVANIA       CLEAR     81  52  36 NW6       29.89R
CLAXTON        FAIR      79  54  41 W5        29.89S
THOMSON        CLEAR     76  60  57 W7        29.94S
AUGUSTA-BUSH   CLEAR     77  50  38 W13G21    29.88S
AUGUSTA-DANIEL CLEAR     77  51  40 VRB5      29.89S
SWAINSBORO     FAIR      79  52  38 W7        29.91R
VIDALIA        CLEAR     77  52  41 W7        29.90S
ALMA           CLEAR     78  52  40 W7        29.91S
WAYCROSS       CLEAR     82  54  38 NW3       29.91S
JESUP          FAIR      81  55  41 W3        29.90S
BRUNSWICK      CLEAR     79  54  41 W5        29.91S
SAINT SIMONS   CLEAR     75  63  66 S6        29.90S

$$

SCZ027-028-034-036>038-045-046-048>050-GAZ119-141-212300-
...LAKE AND SUPPLEMENTAL COASTAL OBSERVATIONS...

STATION/POSITION TIME  TEMP    WIND        PRES    WAVE   SWELL
                       AIR SEA DIR/SP/G            HT/PER HT/PER/DIR
                 (UTC) (F)     (DEG/KT/KT) (MB)    (FT/S) (FT/S/D)
UPR LAKE MARION  NOT AVBL
WINYAH BAY       2100   76     250/  8     1011.0S
LAKE MURRAY      2100   75     300/ 10/ 16 1010.5S
ACE BASIN NERRS  2100   78     270/  3     1012.0S
FORT PULASKI     2200   77     250/  4/  5 1012.3R
SAPELO ISLAND    NOT AVBL

$$

ANZ835-935-AMZ111-154-330-350-352-354-374-450-454-472-212300-
...C-MAN AND BUOY OBSERVATIONS...

STATION/POSITION TIME  TEMP    WIND        PRES    WAVE   SWELL
                       AIR SEA DIR/SP/G            HT/PER HT/PER/DIR
                 (UTC) (F)     (DEG/KT/KT) (MB)    (FT/S) (FT/S/D)
FOLLY BEACH CMAN 2100   74     210/ 13/ 15 1012.1R
BUOY 41004       2200   74 79  250/ 12/ 14 1011.4S   2/ 9   2/ 9
BUOY 41008       2200   74 76  170/  6/  8 1012.5F   2/ 9   2/ 90/ 9
5E ST. MARYS GA  2200      78                N/A     2/ 9
FRYING PAN BUOY  2200   72 76  230/ 10/ 12 1011.8S   2/10   2/110/10
BUOY 41025       2200   73     220/ 14/ 17 1010.5F   3/ 9   2/110/ 9
CAPE LOOKOUT NC  2100   72     220/  7/  9 1010.6R
BUOY 41002       2127   77 80  170/ 10/ 12 1012.1F   4/10   3/120/10
BUOY 41010       2200   78 80   20/  4/  6 1013.2S   2/ 8   2/ 50/ 8
BUOY 41012       NOT AVBL
ST AUGUSTINE FL  2200   76      90/  4/  5 1013.6F
CAPERS NEARSHORE 2100   74     210/ 14/ 16   N/A
FRIPP NEARSHORE  NOT AVBL


$$



USA.gov is the U.S. government's official web portal to all federal, state and local government web resources and services.